TimeEDT,TemperatureF,Dew PointF,Humidity,Sea Level PressureIn,VisibilityMPH,Wind Direction,Wind SpeedMPH,Gust SpeedMPH,PrecipitationIn,Events,Conditions,WindDirDegrees,DateUTC
12:56 AM,75.9,68.0,76,30.11,10.0,ESE,6.9,-,N/A,,Scattered Clouds,120,2013-06-16 04:56:00
1:56 AM,75.9,68.0,76,30.11,10.0,ESE,6.9,-,N/A,,Scattered Clouds,120,2013-06-16 05:56:00
2:56 AM,72.0,68.0,87,30.10,10.0,Calm,Calm,-,N/A,,Scattered Clouds,0,2013-06-16 06:56:00
3:56 AM,70.0,66.9,90,30.10,10.0,Calm,Calm,-,N/A,,Scattered Clouds,0,2013-06-16 07:56:00
4:56 AM,69.1,66.9,93,30.10,10.0,Calm,Calm,-,N/A,,Partly Cloudy,0,2013-06-16 08:56:00
5:56 AM,69.1,66.0,90,30.11,10.0,Calm,Calm,-,N/A,,Scattered Clouds,0,2013-06-16 09:56:00
6:56 AM,69.1,66.9,93,30.12,10.0,Calm,Calm,-,N/A,,Scattered Clouds,0,2013-06-16 10:56:00
7:56 AM,75.9,70.0,82,30.12,10.0,ESE,4.6,-,0.01,,Partly Cloudy,120,2013-06-16 11:56:00
8:56 AM,80.1,70.0,71,30.14,10.0,ESE,5.8,-,N/A,,Scattered Clouds,110,2013-06-16 12:56:00
9:56 AM,81.0,69.1,67,30.14,10.0,SE,6.9,-,N/A,,Scattered Clouds,140,2013-06-16 13:56:00
10:56 AM,84.0,70.0,63,30.13,10.0,ESE,6.9,-,N/A,,Scattered Clouds,110,2013-06-16 14:56:00
11:56 AM,84.9,69.1,59,30.13,10.0,ESE,8.1,-,N/A,,Scattered Clouds,120,2013-06-16 15:56:00
12:56 PM,86.0,71.1,61,30.12,10.0,East,10.4,-,N/A,,Scattered Clouds,100,2013-06-16 16:56:00
1:56 PM,86.0,70.0,59,30.10,10.0,East,6.9,-,N/A,,Partly Cloudy,90,2013-06-16 17:56:00
2:56 PM,84.9,70.0,61,30.09,10.0,ESE,13.8,-,N/A,,Partly Cloudy,110,2013-06-16 18:56:00
3:56 PM,84.9,66.9,55,30.08,10.0,SE,12.7,-,N/A,,Partly Cloudy,130,2013-06-16 19:56:00
4:56 PM,84.9,68.0,57,30.07,10.0,ESE,13.8,-,N/A,,Scattered Clouds,120,2013-06-16 20:56:00
5:56 PM,84.0,68.0,58,30.06,10.0,ESE,9.2,-,N/A,,Scattered Clouds,110,2013-06-16 21:56:00
6:56 PM,82.0,68.0,62,30.08,10.0,SE,12.7,-,N/A,,Scattered Clouds,130,2013-06-16 22:56:00
7:56 PM,80.1,70.0,71,30.08,10.0,ESE,9.2,-,N/A,,Scattered Clouds,110,2013-06-16 23:56:00
8:56 PM,79.0,70.0,74,30.09,10.0,SE,8.1,-,N/A,,Scattered Clouds,130,2013-06-17 00:56:00
9:56 PM,78.1,71.1,79,30.09,10.0,SE,9.2,-,N/A,,Scattered Clouds,140,2013-06-17 01:56:00
10:56 PM,77.0,72.0,84,30.10,10.0,SSE,8.1,-,N/A,,Scattered Clouds,150,2013-06-17 02:56:00
11:56 PM,75.9,72.0,87,30.10,10.0,SSE,4.6,-,N/A,,Scattered Clouds,160,2013-06-17 03:56:00